Location: Ambatotampy
(18.8181°S, 47.6186°E)
Time: 19:35:58
(UTC+00:00)

Star 63D - Pass Details

Date: 21 January 2021
Orbit: 361 x 32493 km, 21.4° (Epoch: 08 March)

Event Time Altitude Azimuth Distance (km) Brightness Sun altitude
Exits shadow 01:25:50 32° 279° (W) 639 3.6 -14.4°
Maximum altitude 01:26:42 60° 347° (NNW) 424 3.0 -14.2°
Drops below altitude 10° 01:29:38 10° 68° (ENE) 1,717 6.9 -13.6°
Sets 01:32:45 0° 72° (ENE) 3,401 8.6 -12.9°
